This is the latest recevied weather packets stored in our database for station/object MB7UIK. If no packets are shown the sender has not sent any weather packets the latest 1 day(s).
| Time | Temp. | Humidity | Pressure | Rain* | Wind** | Luminosity | Snow |
|---|---|---|---|---|---|---|---|
| 1777989946 | 16.67° C | 25% | 1011.2 hPa | 0 mm | 3.13 m/s, 58° | - | - |
| 1777989886 | 16.11° C | 25% | 1011.2 hPa | 0 mm | 2.68 m/s, 90° | - | - |
| 1777989826 | 16.11° C | 25% | 1011.2 hPa | 0 mm | 2.68 m/s, 73° | - | - |
| 1777989766 | 16.11° C | 25% | 1011.2 hPa | 0 mm | 2.68 m/s, 70° | - | - |
| 1777989731 | 16.11° C | 25% | 1011.2 hPa | 0 mm | 2.68 m/s, 70° | - | - |
| 1777989705 | 16.11° C | 25% | 1011.2 hPa | 0 mm | 1.79 m/s, 82° | - | - |
| 1777989644 | 16.11° C | 24% | 1011.2 hPa | 0 mm | 0.89 m/s, 36° | - | - |
| 1777989584 | 16.11° C | 23% | 1011.3 hPa | 0 mm | 1.34 m/s, 25° | - | - |
| 1777989524 | 16.11° C | 22% | 1011.3 hPa | 0 mm | 1.34 m/s, 28° | - | - |
| 1777989464 | 16.11° C | 22% | 1011.2 hPa | 0 mm | 1.79 m/s, 36° | - | - |
| 1777989432 | 16.11° C | 22% | 1011.2 hPa | 0 mm | 1.79 m/s, 36° | - | - |
| 1777989406 | 16.11° C | 24% | 1011.2 hPa | 0 mm | 1.34 m/s, 50° | - | - |
| 1777989345 | 16.11° C | 23% | 1011.2 hPa | 0 mm | 1.34 m/s, 23° | - | - |
| 1777989285 | 16.11° C | 23% | 1011.2 hPa | 0 mm | 1.34 m/s, 36° | - | - |
| 1777989225 | 16.11° C | 23% | 1011.2 hPa | 0 mm | 1.79 m/s, 49° | - | - |
| 1777989165 | 16.11° C | 23% | 1011.3 hPa | 0 mm | 1.79 m/s, 98° | - | - |
| 1777989133 | 16.11° C | 23% | 1011.3 hPa | 0 mm | 1.79 m/s, 98° | - | - |
| 1777989105 | 16.11° C | 20% | 1011.3 hPa | 0 mm | 2.24 m/s, 42° | - | - |
| 1777989045 | 16.11° C | 18% | 1011.2 hPa | 0 mm | 3.13 m/s, 49° | - | - |
| 1777988985 | 16.11° C | 18% | 1011.3 hPa | 0 mm | 1.34 m/s, 71° | - | - |
| 1777988924 | 16.11° C | 17% | 1011.2 hPa | 0 mm | 1.34 m/s, 20° | - | - |
| 1777988864 | 16.11° C | 16% | 1011.3 hPa | 0 mm | 1.79 m/s, 355° | - | - |
| 1777988832 | 16.11° C | 16% | 1011.3 hPa | 0 mm | 1.79 m/s, 355° | - | - |
| 1777988804 | 16.11° C | 15% | 1011.2 hPa | 0 mm | 1.34 m/s, 52° | - | - |
| 1777988745 | 16.11° C | 14% | 1011.2 hPa | 0 mm | 3.58 m/s, 82° | - | - |
* Rain latest hour (hover to see other rain measurements)
** Current wind speed in m/s (hover to see current wind gust speed)